This is the latest recevied weather packets stored in our database for station/object VE3EP-1. If no packets are shown the sender has not sent any weather packets the latest 10 day(s).
| Time | Temp. | Humidity | Pressure | Rain* | Wind** | Luminosity | Snow |
|---|---|---|---|---|---|---|---|
| 1777741328 | 6.11° C | 73% | 1016.4 hPa | 0 mm | - | - | - |
| 1777739528 | 5° C | 73% | 1016.7 hPa | 0 mm | - | - | - |
| 1777738928 | 5.56° C | 75% | 1016.6 hPa | 0 mm | - | - | - |
| 1777737728 | 4.44° C | 77% | 1016.6 hPa | 0 mm | - | - | - |
| 1777733529 | 3.89° C | 79% | 1016.9 hPa | 0 mm | - | - | - |
| 1777730529 | 3.89° C | 81% | 1016.7 hPa | 0 mm | - | - | - |
| 1777728730 | 3.89° C | 84% | 1017.1 hPa | 0 mm | - | - | - |
| 1777728129 | 3.89° C | 83% | 1017.2 hPa | 0 mm | - | - | - |
| 1777726329 | 4.44° C | 74% | 1017 hPa | 0 mm | - | - | - |
| 1777725129 | 3.89° C | 76% | 1017.1 hPa | 0 mm | - | - | - |
| 1777724529 | 3.89° C | 78% | 1017 hPa | 0 mm | - | - | - |
| 1777723329 | 3.89° C | 80% | 1017 hPa | 0 mm | - | - | - |
| 1777722728 | 3.89° C | 80% | 1016.9 hPa | 0 mm | - | - | - |
| 1777722130 | 3.89° C | 80% | 1016.9 hPa | 0 mm | - | - | - |
| 1777721529 | 3.89° C | 82% | 1016.8 hPa | 0 mm | - | - | - |
| 1777720328 | 3.89° C | 82% | 1016.7 hPa | 0 mm | - | - | - |
| 1777719728 | 3.89° C | 83% | 1016.5 hPa | 0 mm | - | - | - |
| 1777719128 | 3.89° C | 82% | 1016.6 hPa | 0 mm | - | - | - |
| 1777717929 | 3.89° C | 82% | 1016.5 hPa | 0 mm | - | - | - |
| 1777717328 | 3.89° C | 82% | 1016.4 hPa | 0 mm | - | - | - |
| 1777716728 | 3.89° C | 80% | 1016.4 hPa | 0 mm | - | - | - |
| 1777716129 | 3.89° C | 78% | 1016.5 hPa | 0 mm | - | - | - |
| 1777715529 | 3.89° C | 76% | 1016.2 hPa | 0 mm | - | - | - |
| 1777714329 | 3.89° C | 77% | 1016 hPa | 0 mm | - | - | - |
| 1777713730 | 3.89° C | 77% | 1015.8 hPa | 0 mm | - | - | - |
* Rain latest hour (hover to see other rain measurements)
** Current wind speed in m/s (hover to see current wind gust speed)